World > North America > United States > Ohio > Chester  

Chester, OH Hourly Weather Updates

Feedback E-mail the Weather

Quick Clicks

Chester, OH Weather Maps

°F °C°F °C
Chester Weather Map
UTC Time: 7/24/2024, 05:44
Your Time:

Chester, OH Regional Weather

Expires:202407240600;;196738
ASUS41 KCLE 240512
RWRCLE
OHIO REGIONAL WEATHER ROUNDUP
NATIONAL WEATHER SERVICE WILMINGTON, OH
100 AM EDT WED JUL 24 2024

NOTE: "FAIR" INDICATES FEW OR NO CLOUDS BELOW 12,000 FEET WITH NO
SIGNIFICANT WEATHER AND/OR OBSTRUCTIONS TO VISIBILITY.


OHZ036-037-039>041-045>050-054>059-063>069-073>076-082>088-240600-
  CENTRAL AND SOUTHEAST OHIO
  
CITY           SKY/WX    TMP DP  RH WIND       PRES   REMARKS
COLUMBUS       FAIR      72  69  90 SE5       30.09S                  
OSU AIRPORT    FAIR      73  65  75 S3        30.09S                  
BOLTON FIELD   FAIR      68  67  98 W3        30.10S FOG              
RICKENBACK AFB FAIR      71  68  92 S3        30.09S                  
NEWARK         FAIR      67  65  93 CALM      30.10S FOG              
MARION         FAIR      69  63  81 S3        30.09S                  
LANCASTER      FAIR      66  66 100 CALM      30.11S                  
ZANESVILLE     FAIR      68  66  93 CALM      30.11R                  
NEW PHILLY     FAIR      66  66 100 SE3       30.10S                  
$$
  

SKY/WX - Weather  TMP - Temperature  DP - Dew Point  RH - Humidity
WIND - Wind Direction/Speed PRES - Barometric Pressure VSB - Visibility
WCI - Wind Chill Index E13G22 Wind - East Wind 13 mph/Gusts of 22 mph

Trending Headlines

Trending Entertainment Headlines

Chester Radar Loop

Use the map search tool if you want to place a location marker on the radar map...

Chester Quick Facts

National Two Day Weather Forecast


E-mail the Chester Weather Forecast

Voice your opinion or tell us about page issues...